Flag for France Weather past 2 weeks in Montpellier, France

Now
70 °F

Clear.


Feels Like: 70 °F
Forecast: 60 / 80 °F
Wind: 12 mph from West

Location: Montpellier Airport

Current Time: Aug 23, 2014 at 10:27:58 PM

Latest Report: Aug 23, 2014 at 10:00 PM


Visibility: 10 mi

Pressure: 30.07 "Hg

Humidity: 53%

Dew point: 52 °F

Location of MontpellierLocation

Historic Weather in Montpellier — Graph

°F

Montpellier temperature yesterday

Maximum temperature yesterday: 75 °F (at 1:30 PM)
Minimum temperature yesterday: 59 °F (at 6:30 AM)
Average temperature yesterday: 68 °F

Past Weeks' High & Low Weather Summary

 TemperatureHumidityPressure
High88 °F (Aug 11, 2:30 PM)94% (Aug 9, 12:00 AM)30.12 "Hg (Aug 9, 12:00 AM)
Low59 °F (Aug 17, 6:30 AM)23% (Aug 16, 4:00 PM)29.74 "Hg (Aug 13, 4:00 AM)
Average72 °F60%29.97 "Hg
* Reported Aug 8 9:00 PM — Aug 23 9:30 PM, Montpellier, Weather by CustomWeather, © 2014

Note: Actual official high and low records may vary slightly from our data, if they occured in-between our weather recording intervals... More about our weather records

Advertising

Montpellier weather history for previous 24 hours

 ConditionsComfort  
Time TempWeatherWind HumidityBarometerVisibility
9:30 PM
Aug 23
72 °FSunny.12 mph47%30.07 "Hg10 mi
9:00 PM73 °FSunny.14 mph44%30.04 "Hg10 mi
8:30 PM73 °FSunny.16 mph41%30.04 "Hg10 mi
8:00 PM75 °FSunny.17 mph36%30.04 "Hg10 mi
7:00 PM79 °FSunny.17 mph30%30.01 "Hg10 mi
6:30 PM79 °FSunny.16 mph30%30.01 "Hg10 mi
6:00 PM81 °FSunny.17 mph28%30.01 "Hg10 mi
5:36 PM81 °FPassing clouds.15 mph28%30.01 "HgN/A
5:00 PM82 °FPassing clouds.15 mph26%30.01 "HgN/A
4:30 PM81 °FPassing clouds.15 mph30%30.01 "HgN/A
4:00 PM81 °FPassing clouds.15 mph30%30.01 "HgN/A
3:30 PM81 °FPassing clouds.17 mph32%30.01 "HgN/A
3:00 PM81 °FPassing clouds.16 mph30%30.01 "HgN/A
2:00 PM79 °FPassing clouds.18 mph32%30.01 "HgN/A
1:30 PM81 °FPassing clouds.15 mph30%30.01 "HgN/A
1:00 PM79 °FPassing clouds.10 mph30%30.01 "HgN/A
12:30 PM79 °FSunny.5 mph32%30.01 "Hg10 mi
12:00 PM75 °FPassing clouds.7 mph36%30.01 "HgN/A
11:30 AM75 °FPassing clouds.5 mph39%30.01 "HgN/A
11:11 AM75 °FSunny.3 mph44%30.04 "Hg10 mi
10:30 AM72 °FPassing clouds.6 mph50%30.04 "HgN/A
10:00 AM70 °FPassing clouds.7 mph60%30.04 "HgN/A
9:30 AM68 °FSunny.6 mph64%30.01 "Hg10 mi
9:00 AM66 °FSunny.7 mph68%30.01 "Hg10 mi
8:30 AM66 °FSunny.5 mph73%30.01 "Hg10 mi
8:00 AM64 °FSunny.7 mph78%30.01 "Hg10 mi
7:30 AM64 °FClear.6 mph83%30.01 "Hg10 mi
7:00 AM64 °FClear.5 mph83%30.01 "Hg10 mi
6:30 AM64 °FClear.6 mph83%29.98 "Hg10 mi
6:00 AM64 °FClear.7 mph83%29.98 "Hg10 mi
5:30 AM64 °FLight rain. Clear.8 mph83%29.98 "HgN/A
5:00 AM64 °FLight rain. Clear.8 mph83%29.98 "HgN/A
4:30 AM66 °FLight rain. Clear.6 mph78%29.98 "HgN/A
4:00 AM66 °FLight rain. Clear.5 mph78%29.98 "HgN/A
3:30 AM68 °FClear.3 mph69%29.98 "HgN/A
3:00 AM68 °FClear.3 mph69%29.98 "HgN/A
2:30 AM68 °FClear.2 mph69%29.98 "HgN/A
2:00 AM68 °FClear.5 mph73%29.95 "HgN/A
1:30 AM68 °FClear.7 mph69%29.98 "HgN/A
1:00 AM68 °FClear.8 mph69%29.98 "Hg10 mi
12:30 AM66 °FClear.9 mph73%29.98 "Hg10 mi
12:00 AM66 °FClear.6 mph78%29.98 "Hg10 mi
11:30 PM
Aug 22
66 °FClear.5 mph78%29.98 "Hg10 mi
11:04 PM66 °FLight rain. Clear.7 mph78%30.01 "HgN/A
10:30 PM68 °FLight rain. Clear.8 mph73%30.01 "HgN/A
10:00 PM68 °FLight rain. Clear.7 mph78%29.98 "HgN/A
Weather by CustomWeather, © 2014

See weather overviewHow to use our weather pages